Theta_e
345 351 352 339 354 347 347 345 343 344 345 343 343 344 346 345 347 351 343 336 333 335 336 336 336 332 335 336 334 337 338 335 336 337 337 338 338 339 339 340 340 340 341 342 341 341 341 340 338
347 348 350 338 352 348 349 345 345 341 342 343 343 343 343 345 342 342 341 334 335 338 339 338 335 333 335 335 333 337 336 336 337 337 338 339 338 338 338 339 339 338 339 341 336 336 340 340 335
351 354 340 348 352 350 348 344 342 343 343 341 342 341 342 341 340 341 339 339 341 343 345 339 337 332 333 332 335 336 338 337 336 335 338 339 338 340 341 340 339 340 339 337 338 333 332 332 331
353 354 354 356 349 345 345 343 341 344 341 340 341 343 343 341 340 341 343 341 343 345 337 338 334 333 332 335 335 336 336 335 331 338 337 330 334 339 339 339 336 337 338 331 330 331 334 333 336
352 348 353 355 349 345 342 341 344 345 342 341 339 342 343 342 342 343 344 341 345 345 335 338 329 334 333 337 337 338 337 335 336 337 339 336 331 338 338 338 335 333 328 326 325 325 327 330 331
351 343 351 353 347 343 345 343 342 343 337 341 341 341 341 340 344 344 346 342 343 345 342 337 337 336 335 338 338 336 336 336 337 335 330 333 334 336 337 338 337 335 336 334 332 327 325 324 324
341 346 352 347 348 346 347 341 343 344 343 342 342 341 340 341 344 342 343 345 344 344 344 341 335 339 338 337 336 336 336 335 333 332 335 336 335 332 335 337 338 338 337 337 335 331 329 325 324
341 351 353 348 352 348 345 344 343 343 343 342 341 341 342 342 342 342 342 344 344 343 343 345 340 339 336 337 336 335 335 335 333 328 327 327 328 326 332 337 338 338 338 336 334 331 328 326 330
349 349 348 354 350 346 342 344 344 341 342 343 343 341 341 341 343 343 341 343 342 343 342 345 348 348 343 337 335 334 334 330 339 340 343 346 345 340 338 338 337 336 337 335 332 338 342 337 343
351 348 349 347 345 347 345 343 340 341 342 343 343 343 340 342 341 341 340 340 343 344 345 339 349 346 346 341 334 341 342 340 342 344 345 346 344 340 327 332 338 336 333 334 341 345 346 347 348
353 350 346 348 349 348 345 342 341 342 344 345 345 343 342 341 342 340 341 342 344 345 339 345 339 346 346 337 343 342 342 344 340 345 347 345 342 342 343 343 335 339 341 335 344 348 348 347 348
354 350 349 347 346 346 346 344 345 343 343 345 343 342 343 342 343 340 340 343 343 346 346 347 345 345 344 345 347 344 344 338 342 343 346 345 333 345 346 347 341 344 338 346 347 347 348 344 345
350 351 348 345 349 347 346 342 345 343 343 343 343 342 343 344 340 341 341 345 345 346 346 348 346 346 346 334 345 344 342 342 344 340 332 347 344 342 343 345 347 345 346 345 346 350 347 344 345
343 350 348 348 349 348 349 347 346 341 342 343 342 343 343 344 341 341 341 342 344 345 347 345 345 345 346 345 345 344 343 343 344 345 345 345 343 347 338 346 343 343 347 347 347 348 348 344 343
350 352 349 345 347 350 339 347 346 341 342 342 343 343 343 343 343 343 341 342 344 346 346 344 345 346 345 341 340 344 340 342 345 346 338 341 344 345 346 348 347 346 348 347 350 348 345 341 343
350 351 352 345 345 344 344 350 347 343 341 341 341 342 344 344 343 342 343 343 343 345 346 346 347 345 344 343 346 347 342 344 343 344 341 345 346 345 345 348 350 348 342 346 347 347 345 341 343
342 350 349 351 344 348 349 351 348 346 341 340 342 345 343 344 344 344 344 344 345 345 345 347 347 345 346 342 346 346 345 346 344 346 347 347 341 345 349 348 347 347 343 349 350 346 345 343 344
349 348 351 354 352 350 350 349 348 347 346 341 341 344 343 344 346 346 345 344 346 346 344 348 346 347 346 347 345 344 340 346 347 342 348 340 349 348 344 350 336 329 344 346 352 349 349 345 344
342 345 350 352 349 350 351 351 346 343 345 343 342 344 342 344 345 345 345 344 347 346 344 348 346 346 346 345 347 346 345 346 346 347 349 345 349 349 348 347 333 339 342 352 348 346 348 352 349
338 340 352 350 348 348 351 350 347 341 340 345 343 343 343 344 344 345 345 344 346 346 345 348 348 346 348 346 348 349 345 346 344 347 346 341 348 347 350 349 345 336 346 354 354 354 354 351 350
335 336 345 346 349 348 348 350 350 347 346 348 345 343 343 342 344 342 344 345 345 346 346 347 346 347 344 347 346 348 346 347 346 346 349 345 347 349 350 352 347 346 341 346 351 352 345 333 344
333 342 341 343 352 354 346 352 349 345 348 349 348 346 343 343 345 342 343 343 345 346 347 346 347 345 343 347 346 348 344 346 345 346 347 348 346 348 348 349 351 349 348 350 354 355 348 350 344
332 337 338 339 341 352 349 349 347 348 349 344 338 345 345 344 344 344 343 343 345 345 345 348 348 345 346 347 345 346 346 347 346 347 348 348 349 346 346 351 350 350 348 353 349 346 346 346 351
331 335 339 338 339 344 347 350 351 349 349 348 350 346 345 344 344 343 343 344 344 347 346 346 348 345 346 347 345 347 349 345 346 349 348 347 346 350 343 353 349 350 347 352 352 350 350 345 344
330 332 337 338 340 348 350 350 354 344 344 347 349 348 347 348 343 344 342 343 345 346 347 348 349 346 345 349 344 344 346 346 351 347 348 348 349 350 352 347 347 345 352 348 345 346 346 345 345
332 333 336 344 348 347 349 355 355 344 344 345 348 350 348 347 346 343 343 345 344 346 347 349 351 348 346 349 346 343 342 345 349 349 349 348 346 347 351 350 352 349 349 347 351 348 349 350 352
329 335 336 344 343 346 348 347 346 345 345 346 346 350 349 347 347 342 344 346 345 347 346 349 350 350 348 349 350 345 344 349 348 348 348 348 347 350 343 343 351 349 351 350 348 349 347 348 350
332 334 336 338 340 343 351 344 345 344 343 348 344 344 346 346 347 345 343 345 346 348 348 347 349 351 350 351 350 349 346 345 347 350 349 352 351 349 347 350 352 351 350 347 347 349 348 350 351
339 338 335 335 339 350 353 350 342 348 346 348 347 346 346 345 346 347 345 344 346 346 348 348 350 354 353 352 351 348 348 350 348 348 350 351 348 349 352 348 345 348 349 350 347 346 345 348 348
335 333 331 341 344 346 344 349 340 345 347 344 342 348 347 348 347 348 347 344 345 345 347 348 350 352 353 353 350 349 349 349 349 347 348 352 346 347 350 348 349 348 349 351 349 347 349 349 350
Wind_Speed
1 6 17 22 5 3 14 15 10 16 15 16 16 6 8 12 5 13 19 21 30 24 20 17 15 15 15 16 13 15 17 18 18 18 17 17 18 18 17 18 18 19 19 20 19 18 17 17 18
4 5 13 6 5 7 13 20 6 14 20 27 10 30 27 23 24 25 23 26 21 19 17 14 14 14 15 16 14 16 18 18 18 17 17 17 17 18 19 19 18 18 18 18 18 16 16 16 18
7 7 27 3 4 7 10 19 14 18 16 19 31 28 22 24 24 23 25 22 14 17 14 13 14 14 15 16 15 15 16 17 16 16 16 16 17 18 18 17 17 16 16 16 16 15 15 16 18
6 16 12 6 12 17 16 15 16 16 23 19 22 18 27 25 28 27 27 16 18 20 13 16 16 18 16 15 15 14 15 16 17 16 15 15 16 16 18 18 18 17 16 14 14 14 14 15 17
14 8 4 5 13 10 14 17 24 7 20 21 25 23 31 28 29 24 19 20 24 18 15 16 18 18 17 15 15 15 16 16 16 15 15 15 15 16 16 16 17 17 17 16 15 15 14 14 14
8 2 2 4 16 14 17 18 9 25 16 12 24 25 26 22 27 25 20 15 23 22 13 17 18 18 17 16 16 15 16 16 15 13 14 15 15 16 15 15 16 16 16 16 15 15 14 13 12
10 4 6 6 13 12 17 12 13 15 21 18 24 20 24 20 18 18 18 21 20 22 16 16 17 17 16 14 15 15 15 14 14 14 14 15 14 13 13 15 16 15 15 14 14 14 13 13 13
27 3 12 7 13 2 19 13 17 14 17 26 26 15 20 21 20 16 13 14 21 17 18 15 14 12 15 15 13 14 15 15 15 17 19 18 17 16 13 12 14 14 14 14 14 15 15 15 18
18 3 3 7 16 11 16 13 10 12 23 17 5 29 22 20 19 21 18 19 13 14 21 22 20 14 12 15 14 15 15 18 21 19 17 18 15 9 12 11 12 12 12 13 15 15 14 20 19
6 1 3 11 13 6 12 14 15 14 12 20 20 29 22 19 19 18 16 14 14 13 19 15 20 16 13 11 18 17 18 17 12 7 7 14 18 5 10 11 11 12 11 13 16 11 9 6 6
5 7 13 8 2 15 14 7 15 18 14 23 21 25 20 17 18 15 17 16 15 15 3 14 14 19 17 14 15 14 14 10 12 13 10 16 12 11 10 11 12 12 9 11 7 9 7 7 4
6 11 11 2 12 4 9 9 18 14 19 28 27 22 20 17 19 16 16 22 16 13 8 8 13 17 14 14 18 13 14 7 6 17 8 11 12 6 9 6 6 7 4 7 5 4 7 9 9
18 7 6 5 4 5 4 9 4 13 14 20 22 23 19 16 15 20 16 20 19 18 14 19 15 15 11 13 18 18 14 10 12 14 15 9 5 7 4 10 11 10 5 8 7 3 5 10 9
17 9 7 2 10 12 3 6 12 13 18 22 20 23 19 16 15 19 18 15 15 19 20 16 13 13 6 7 12 12 11 10 7 12 9 6 8 9 10 7 9 9 7 4 6 5 3 9 8
14 9 7 4 2 8 25 12 10 17 19 21 22 22 21 16 16 17 15 15 14 17 15 11 13 17 14 13 16 9 13 9 11 4 5 7 7 10 9 5 10 4 5 8 5 7 7 8 9
10 9 3 2 3 2 11 9 7 19 18 17 23 18 19 19 16 14 16 17 17 15 16 11 15 11 13 16 11 6 12 7 6 4 2 3 4 11 9 9 10 16 14 13 5 5 5 8 3
7 6 6 3 11 4 3 2 22 17 19 18 23 24 19 19 17 20 14 18 17 16 12 14 14 11 15 10 8 6 5 10 4 8 6 6 6 11 9 12 10 16 11 9 13 4 7 8 8
5 3 5 12 9 11 8 6 1 10 21 16 20 30 21 19 29 20 17 19 21 19 14 15 15 14 9 12 10 7 16 7 9 8 11 10 9 5 9 9 8 15 4 6 8 11 8 6 4
6 12 13 15 9 8 7 10 3 11 14 9 12 27 20 24 24 21 22 20 18 17 16 13 16 15 11 11 9 8 8 6 5 6 2 4 2 3 6 4 4 16 12 6 9 7 7 3 1
9 2 8 2 7 2 5 7 6 3 22 28 22 19 24 23 22 23 26 22 22 21 19 18 13 16 14 11 10 6 13 13 8 10 7 5 6 4 2 5 24 0 9 6 6 3 6 1 9
9 9 7 5 4 3 4 4 10 14 24 17 22 24 23 23 28 25 26 25 25 24 22 18 16 17 19 14 14 7 12 9 12 8 6 9 5 2 6 3 3 2 4 6 7 9 7 6 2
11 9 3 7 14 4 7 2 5 6 7 10 18 33 20 27 29 26 26 23 25 24 22 20 17 12 17 17 12 9 11 8 9 9 9 10 5 4 4 7 1 3 1 3 5 3 6 6 5
13 5 11 14 11 8 11 4 2 4 5 16 24 44 22 22 27 23 29 27 26 24 22 21 18 19 15 17 18 12 10 8 12 9 9 6 4 7 5 8 7 7 1 7 4 7 7 7 5
13 7 10 15 11 13 13 10 3 3 8 10 38 32 28 31 29 35 28 27 27 24 22 23 21 19 19 17 19 17 9 11 8 9 6 4 4 5 4 7 8 5 5 4 3 7 4 4 7
11 14 10 13 12 3 10 6 3 14 18 19 28 30 35 33 25 26 29 29 29 26 24 25 21 18 20 18 21 19 17 14 10 12 5 9 10 4 12 7 7 7 5 6 8 9 6 6 7
8 15 12 6 5 7 7 3 5 14 18 17 32 30 34 30 27 40 30 33 29 31 27 24 21 15 18 20 18 21 20 17 13 9 9 6 5 7 5 6 5 5 6 5 8 9 9 11 11
15 10 16 7 7 12 4 7 6 14 10 7 9 18 25 32 22 26 33 33 31 33 28 25 21 16 14 17 19 18 18 17 12 10 11 8 11 7 16 10 8 9 11 7 7 8 7 9 9
12 3 7 4 5 18 8 3 1 15 4 12 9 14 11 19 27 24 35 32 32 30 29 25 21 18 14 18 19 18 18 17 17 15 10 7 10 16 6 6 8 9 11 9 11 9 10 13 15
7 5 9 7 6 5 1 1 9 12 24 10 4 6 13 22 30 27 19 32 32 28 30 27 24 21 19 18 21 17 18 18 16 16 11 12 12 8 7 13 12 9 9 10 10 11 11 15 14
10 6 18 11 2 2 4 4 11 9 4 11 5 3 5 9 19 14 20 20 32 29 30 29 28 26 20 20 20 18 18 16 15 12 12 12 11 9 10 13 13 10 8 8 13 13 11 15 14
Wind_Direction
277 35 16 5 304 173 98 86 43 116 111 100 128 139 137 182 51 108 135 131 134 120 115 110 110 111 107 111 114 114 109 108 109 106 105 104 101 100 103 102 103 102 101 100 103 103 103 108 105
188 315 69 167 245 117 111 98 81 75 80 98 72 75 76 83 106 123 133 143 124 110 103 110 107 107 110 115 117 114 111 110 107 106 107 103 101 102 103 102 101 102 104 105 102 103 110 109 107
109 133 112 201 242 110 103 97 95 85 57 66 80 83 96 113 114 124 133 133 135 105 136 128 122 119 120 120 118 115 112 111 109 109 104 102 106 107 103 99 99 101 102 106 106 108 107 109 112
273 222 212 210 115 100 109 100 119 118 96 92 97 88 103 112 121 125 137 152 148 129 134 128 125 129 124 123 123 122 120 115 109 107 102 105 112 108 104 99 99 98 100 104 108 109 107 110 111
256 2 348 96 105 101 93 87 86 39 71 114 103 95 119 115 126 134 136 127 128 132 128 126 125 129 129 124 127 123 121 117 110 109 105 104 110 116 109 105 104 99 102 102 103 104 105 109 112
45 12 302 35 104 92 85 107 163 114 111 121 101 103 111 123 128 127 133 123 130 130 137 131 130 129 130 125 125 123 120 119 116 113 109 115 114 120 114 112 107 107 105 100 97 96 99 105 109
75 271 272 240 102 91 95 91 65 135 156 124 124 114 127 131 128 127 145 142 140 136 135 130 132 134 129 126 124 124 124 123 116 113 108 106 107 120 123 120 118 114 108 103 98 95 92 91 93
154 239 323 106 100 143 118 109 72 109 127 131 129 134 138 142 141 135 131 150 121 137 125 135 129 122 131 126 122 122 116 112 107 106 102 96 97 107 116 126 126 119 114 104 101 93 86 86 96
115 87 302 4 144 133 118 90 98 107 135 89 29 138 145 147 145 130 132 131 110 140 149 159 140 136 144 124 119 111 107 108 107 113 121 109 84 91 118 133 128 122 112 110 101 93 90 93 88
64 277 198 260 351 53 91 121 134 137 111 151 145 133 139 147 153 148 140 144 135 152 168 139 133 125 121 125 112 113 110 107 102 100 117 117 126 102 108 128 127 119 112 107 100 82 62 75 84
207 154 220 250 168 224 115 136 137 142 137 120 119 135 145 158 148 157 148 146 148 163 185 142 133 137 153 125 115 107 100 105 146 129 99 110 132 142 101 92 115 110 104 117 94 65 62 29 16
268 114 185 153 164 341 127 82 76 30 144 146 146 141 150 170 175 154 150 142 140 149 116 142 118 132 147 165 161 120 133 163 128 119 112 147 87 72 133 157 125 105 78 72 84 108 125 124 126
5 99 126 89 8 47 48 117 27 105 121 134 137 146 162 167 169 138 148 142 129 150 134 144 137 125 160 126 168 152 155 153 158 118 118 145 176 113 153 172 174 177 147 88 111 136 114 122 108
209 101 109 62 7 107 210 333 124 124 138 138 148 153 170 185 154 144 141 146 147 142 144 152 157 142 146 111 139 159 149 160 128 137 176 145 122 133 133 122 132 182 245 174 188 171 146 127 158
112 130 117 119 345 68 89 288 151 142 148 149 159 165 154 153 152 155 149 151 158 156 158 144 143 155 174 182 146 145 143 142 151 184 184 139 125 151 165 163 201 215 208 204 235 169 150 156 134
168 137 130 237 182 42 106 283 194 163 155 166 153 153 151 140 164 149 158 161 157 152 143 157 155 147 128 142 134 203 150 164 195 142 8 133 136 158 148 182 219 197 175 188 139 159 130 160 157
19 53 318 221 185 123 219 321 140 265 163 177 155 158 155 170 160 158 169 162 162 160 153 167 155 147 163 147 159 134 160 142 174 148 175 130 143 185 237 222 197 212 215 187 190 177 167 184 168
157 139 28 241 189 202 210 213 112 221 305 171 177 152 157 164 157 162 167 163 158 156 163 170 163 161 142 157 145 149 160 165 168 169 188 165 194 246 260 349 31 159 184 161 119 168 177 168 213
163 183 146 208 138 183 226 246 229 305 302 179 234 151 165 168 165 163 169 161 157 157 165 175 177 175 168 168 172 170 167 170 175 201 185 175 101 261 302 47 354 166 191 146 150 138 171 153 286
253 232 113 153 114 177 150 236 146 129 267 266 212 186 176 163 163 163 166 167 165 164 163 185 180 170 169 174 190 199 184 181 196 208 246 178 266 216 107 2 133 29 316 327 110 193 271 253 64
259 255 143 141 337 138 146 227 223 210 227 256 209 219 192 174 164 165 173 170 168 169 171 190 204 194 174 190 182 203 180 167 188 221 217 182 215 260 290 95 124 215 28 92 53 359 343 318 17
246 68 343 175 191 223 186 290 238 216 175 285 255 230 184 173 184 174 170 176 172 172 175 192 195 213 195 195 184 195 189 181 213 195 215 212 198 222 271 306 279 220 102 358 38 50 334 342 26
281 182 244 300 272 155 190 228 248 348 197 165 263 258 208 220 178 177 172 174 174 171 178 194 200 208 203 199 196 182 200 221 184 212 205 209 255 213 185 268 281 307 333 360 348 268 276 262 343
301 262 245 254 237 240 201 212 187 196 238 185 217 200 200 216 198 183 176 171 174 171 177 190 199 215 204 206 204 186 195 205 213 201 220 227 256 290 255 211 298 256 256 285 287 283 307 304 294
236 262 261 243 238 249 126 222 206 218 210 212 222 198 210 221 186 182 173 170 175 176 179 188 199 211 213 208 210 194 201 198 209 203 239 236 227 262 259 216 243 285 288 305 275 284 329 313 325
229 263 260 307 265 313 224 14 335 220 242 195 195 209 200 212 203 191 176 171 179 177 178 183 195 212 207 203 223 212 213 212 218 220 211 243 231 287 192 185 280 289 279 293 308 337 337 317 326
263 242 329 138 257 256 120 64 347 282 255 159 202 209 196 209 210 201 177 176 176 178 177 184 196 208 207 205 219 224 219 205 206 224 223 225 256 281 259 264 268 296 293 284 286 285 287 278 301
301 66 278 318 252 269 92 81 274 278 13 293 177 196 213 235 241 204 181 177 177 177 178 181 197 208 205 204 216 225 229 221 208 221 223 210 206 257 298 289 256 274 294 283 275 266 270 286 289
9 20 328 313 299 286 82 253 168 252 175 204 158 213 184 182 225 229 204 184 175 183 180 181 187 198 191 202 215 212 223 226 229 224 216 239 227 257 256 274 273 277 274 294 291 295 272 270 283
127 149 277 287 34 34 316 265 346 311 97 121 88 68 137 152 200 234 220 201 177 185 185 185 186 190 192 198 202 214 217 217 228 235 239 240 266 239 247 264 285 284 260 274 293 296 293 278 279